Regional Weather Roundup
Issued by NWS Northern Indiana

Home | Current Version | Previous Version | Text Only | Print | Product List | Glossary Off
Versions: 1 2 3 4 5 6 7 8 9 10 11 12 13 14 15 16 17 18 19 20 21 22 23 24 25 26 27 28 29 30 31 32 33 34 35 36 37 38 39 40 41 42 43 44 45 46 47 48 49 50

000
ASUS43 KIWX 261300
RWRIWX

KIWX WEATHER ROUNDUP
NATIONAL WEATHER SERVICE NORTHERN INDIANA
900 AM EDT SAT JUL 26 2014

NOTE: "FAIR" INDICATES FEW OR NO CLOUDS BELOW 12,000 FEET WITH NO
SIGNIFICANT WEATHER AND/OR OBSTRUCTIONS TO VISIBILITY.

* THESE STATIONS ARE NOT UNDER NWS QUALITY CONTROL. THEY ALSO MAY NOT
  REPORT WEATHER SUCH AS PRECIPITATION OR FOG.

INZ001>027-261400-
NORTHERN INDIANA

CITY           SKY/WX    TMP DP  RH WIND       PRES   REMARKS
GARY*          CLOUDY    72  63  73 S5        29.87R
VALPARAISO     PTSUNNY   68  62  81 S9        29.89R
SOUTH BEND     SUNNY     69  60  73 S7        29.90R
ELKHART*       SUNNY     66  61  82 S3        29.91R
GOSHEN         MOSUNNY   67  62  84 S7        29.90S
ANGOLA*        SUNNY     66  57  72 S6        29.92S
FORT WAYNE     PTSUNNY   68  62  81 S6        29.93R
PERU/GRISSOM   MOSUNNY   72  65  80 SW14      29.91S

$$
INZ028>050-261400-
CENTRAL INDIANA

CITY           SKY/WX    TMP DP  RH WIND       PRES   REMARKS
LAFAYETTE      PTSUNNY   68  64  87 S6        29.89F
KOKOMO*        PTSUNNY   72  63  73 SW13      29.92S
MUNCIE*        PTSUNNY   72  60  66 SW10      29.93S
INDIANAPOLIS   TSTM      67  62  84 SW8       29.94R

$$
MIZ043>046-050>051-056>058-064>065-071>073-077>080-261400-
SOUTHWEST LOWER MICHIGAN

CITY           SKY/WX    TMP DP  RH WIND       PRES   REMARKS
BATTLE CREEK   MOSUNNY   67  59  75 S8        29.91S
BENTON HARBOR  CLOUDY    65  60  84 S6        29.89R
COLDWATER*     SUNNY     69  61  76 S3        29.92S
HILLSDALE*     SUNNY     67  63  86 SW3       29.93S
HOLLAND        CLOUDY    66  61  84 S3        29.90R
GRAND RAPIDS   CLOUDY    67  60  78 SW6       29.90R
KALAMAZOO      MOSUNNY   67  60  78 S6        29.91R
STURGIS*       MOSUNNY   64  61  88 S5        29.91R
THREE RIVERS*  FAIR      67  62  85 S3        29.91S

$$
OHZ001>008-015>018-024>025-261400-
NORTHWEST OHIO

CITY           SKY/WX    TMP DP  RH WIND       PRES   REMARKS
DEFIANCE       SUNNY     69  60  73 S6        29.93S
FINDLAY        SUNNY     71  60  68 S9        29.94S
TOLEDO EXPRESS SUNNY     68  59  73 S6        29.92F
TOLEDO METCALF MOSUNNY   70  59  68 S6        29.94S
LIMA           SUNNY     71  61  70 S9        29.95S

$$
&&



USA.gov is the U.S. government's official web portal to all federal, state and local government web resources and services.